Location: Nag� el Ma?a??a
(24.0667°N, 32.8833°E)
Time: 16:33:31
(UTC+00:00)

Cosmos 1869 Rocket - Pass Details

Date: 25 September 2021
Orbit: 605 x 632 km, 82.5° (Epoch: 16 October)

Event Time Altitude Azimuth Distance (km) Brightness Sun altitude
Rises 03:06:16 0° 341° (NNW) 2,900 6.8 -8.1°
Reaches altitude 10° 03:08:39 10° 332° (NNW) 1,996 5.9 -7.6°
Maximum altitude 03:12:36 33° 269° (W) 1,065 4.3 -6.7°
Drops below altitude 10° 03:16:34 10° 205° (SSW) 2,000 5.9 -5.8°
Sets 03:18:58 0° 196° (SSW) 2,907 6.8 -5.2°
